Location: Andrew Brown Community Park
(32.9810°N, 97.0025°W)
Time: 06:57:08
(UTC+00:00)

Daily predictions for brighter satellites

Satellite Brightness Start Highest point End
(mag) Time Altitude Azimuth Time Altitude Azimuth Time Altitude Azimuth
Spot 2 4.4 12:01:17 10° NNE 12:05:57 85° ESE 12:10:51 10° SSW
Aureole 3 4.0 12:01:43 10° NNW 12:06:14 66° W 12:12:00 10° S
Cosmos 1484 Rocket 4.4 12:04:35 10° NW 12:06:33 14° WNW 12:08:32 10° W
Cosmos 407 Rocket 3.4 12:02:03 10° SSW 12:07:09 78° WNW 12:12:18 10° NNE
BREEZE-M DEB (TANK) 1.3 12:05:26 11° WNW 12:07:46 54° SW 12:09:59 10° SE
Envisat 3.9 12:05:20 10° NNE 12:10:20 55° E 12:15:17 10° S
Cosmos 1626 Rocket 3.6 12:06:34 10° S 12:11:01 86° W 12:15:29 10° N
Cosmos 1140 Rocket 3.5 12:06:43 10° SSW 12:11:51 89° WNW 12:16:59 10° NNE
PSLV R/B 4.0 12:07:55 10° S 12:12:02 61° WSW 12:16:13 10° NNW
H-2A R/B 2.7 12:08:13 10° N 12:12:03 84° WNW 12:15:54 10° SSW
Cosmos 1602 Rocket 3.9 12:09:22 10° S 12:13:44 73° E 12:18:11 10° N
Cosmos 1553 Rocket 4.1 12:08:47 10° N 12:14:54 85° E 12:20:58 10° S
Cosmos 2278 3.8 12:12:40 10° NNW 12:18:12 59° WSW 12:23:43 10° S
Cosmos 1689 Rocket 2.9 12:16:47 10° SSW 12:19:23 29° W 12:22:00 10° NW
SL-27 R/B 2.6 12:15:50 10° SSW 12:19:23 81° ESE 12:23:01 10° NNE
Okean O Rocket 3.4 12:15:41 10° NNE 12:19:45 38° E 12:23:49 10° SSE
Cosmos 2322 Rocket 4.3 12:15:51 10° N 12:20:39 28° ENE 12:25:24 10° ESE
